[[[{"header":{"parameterUnit":"kt","parameterCategory":2,"dx":1,"dy":1,"la1":30.253999710083008,"la2":30.299108505249023,"lo1":-89.0895004272461,"lo2":-89.04439544677734,"nx":28,"ny":28,"refTime":"2022-10-16T21:00:00:Z","depth":0,"parameterNumber":1,"parameterNumberName":"U-component_of_WINDS"},"data":[2.2693,2.2737,2.2747,2.2801,2.2819,2.2858,2.2874,2.2897,2.2917,2.2964,2.2993,2.3006,2.3029,2.3065,2.3096,2.3101,2.3114,2.3124,2.3128,2.3074,2.3067,2.3061,2.3051,2.3127,2.3127,2.3182,2.3183,2.3183,2.2658,2.2676,2.2707,2.2743,2.277,2.2766,2.2794,2.2817,2.2851,2.2876,2.2904,2.2946,2.298,2.2999,2.3032,2.3053,2.3053,2.3062,2.306,2.3064,2.3007,2.2997,2.3062,2.3062,2.3062,2.3062,2.3062,2.3062,2.2596,2.2621,2.2648,2.2682,2.2702,2.2726,2.2752,2.2767,2.2797,2.2832,2.2836,2.2875,2.29,2.2943,2.2959,2.299,2.2981,2.2993,2.2996,2.2998,2.3001,2.2923,2.2996,2.2995,2.2995,2.2995,2.2995,0,2.2553,2.2559,2.2588,2.2621,2.2645,2.2671,2.2695,2.2711,2.2724,2.2748,2.2783,2.2804,2.2847,2.288,2.2913,2.2926,2.2923,2.2923,2.2931,2.293,2.2927,2.293,2.2838,2.292,2.2919,2.2919,2.2919,2.2918,2.2491,2.2519,2.255,2.2569,2.2584,2.2615,2.2636,2.2644,2.2665,2.2696,2.2718,2.2751,2.2778,2.2832,2.2847,2.2878,2.2876,2.2908,2.2881,2.288,2.2878,2.2876,2.2879,2.2912,2.2913,2.2913,2.2914,0,2.2456,2.2468,2.2514,2.254,2.2548,2.2577,2.2599,2.2625,2.2635,2.2671,2.268,2.2696,2.2729,2.2739,2.2778,2.2782,2.2831,2.2829,2.2824,2.2824,2.2853,2.285,2.2944,2.2957,2.2879,2.288,2.288,0,2.2407,2.2443,2.246,2.2485,2.2526,2.2533,2.2573,2.2585,2.2605,2.2634,2.2631,2.2658,2.2665,2.2693,2.2699,2.2741,2.2748,2.2753,2.2754,2.2753,2.2753,2.2763,2.2759,2.2754,2.2754,2.2753,2.2753,0,2.235,2.24,2.2442,2.2455,2.2485,2.2504,2.2518,2.254,2.2559,2.2584,2.2597,2.2626,2.2642,2.2665,2.2672,2.2653,2.2722,2.2698,2.2728,2.2728,2.2741,2.274,2.2822,2.2752,2.2752,2.2752,2.2752,0,2.2312,2.2338,2.2396,2.2422,2.2434,2.2461,2.249,2.2515,2.2539,2.2544,2.2564,2.2562,2.2598,2.2574,2.2624,2.2599,2.2615,2.2623,2.2625,2.2628,2.2601,2.2646,2.2723,2.2732,2.2633,2.2632,2.2631,0,2.2244,2.2305,2.2311,2.2365,2.2394,2.2389,2.2419,2.2439,2.2448,2.2474,2.2484,2.2513,2.2497,2.2507,2.2531,2.2542,2.2575,2.2537,2.2575,2.2576,2.257,2.2641,2.265,2.2706,2.2619,2.262,2.2621,0,2.2192,2.2228,2.2237,2.2252,2.2278,2.2302,2.2336,2.2366,2.2383,2.2405,2.2434,2.2474,2.2463,2.2479,2.248,2.2504,2.2553,2.2489,2.249,2.2501,2.2612,2.2621,2.2631,2.2548,2.2549,2.2551,2.2611,0,2.2134,2.2164,2.2189,2.222,2.224,2.2273,2.2281,2.2301,2.23,2.2308,2.235,2.2366,2.2395,2.2407,2.2405,2.2457,2.2449,2.2437,2.2413,2.246,2.248,2.2488,2.2383,2.2382,2.2382,2.2381,0,0,2.2066,2.2109,2.2112,2.2145,2.2161,2.2153,2.2189,2.2203,2.2233,2.2244,2.2231,2.229,2.2302,2.2352,2.2367,2.2378,2.2388,2.2371,2.2437,2.2444,2.245,2.2471,2.2479,2.238,2.238,2.238,2.238,0,2.2046,2.206,2.2094,2.211,2.2133,2.2139,2.2148,2.2168,2.2174,2.2214,2.2206,2.2232,2.2276,2.2292,2.2306,2.2366,2.2357,2.2374,2.2404,2.2432,2.2439,2.2445,2.2467,2.2475,2.2378,2.2379,2.2379,0,2.1996,2.2012,2.2029,2.2064,2.2079,2.2107,2.2085,2.2116,2.2137,2.2124,2.2164,2.2173,2.2194,2.2239,2.2259,2.2247,2.2329,2.2303,2.2307,2.2309,2.2336,2.2344,2.2352,2.2254,2.2253,2.2253,0,0,2.1978,2.2005,2.2022,2.206,2.207,2.2079,2.2094,2.2094,2.2113,2.212,2.2132,2.215,2.2176,2.2193,2.2218,2.2266,2.227,2.2288,2.2294,2.2298,2.2303,2.2331,2.2339,2.2251,2.2251,2.2251,0,0,2.1968,2.199,2.1985,2.203,2.2049,2.2067,2.209,2.2085,2.2107,2.2104,2.2104,2.2109,2.215,2.2159,2.2136,2.2209,2.2185,2.2191,2.2201,2.2209,2.2215,2.2211,2.2113,0,0,0,0,0,2.195,2.1987,2.1983,2.1992,2.2035,2.207,2.2076,2.2077,2.2061,2.2079,2.2088,2.2078,2.2147,2.2126,2.2134,2.216,2.2229,2.2233,2.2236,2.2261,2.2269,2.2275,0,0,0,0,0,0,2.1954,2.1964,2.1982,2.2002,2.2012,2.2069,2.2042,2.2043,2.2059,2.2057,2.2076,2.2078,2.2079,2.2122,2.2129,2.2154,2.2111,2.223,2.2234,2.2237,2.2264,2.227,2.2276,0,0,0,0,0,2.1956,2.1965,2.2034,2.2002,2.201,2.2021,2.2041,2.2041,2.2053,2.2066,2.2068,2.2053,2.208,2.2086,2.2126,2.2151,2.2106,2.2108,2.2232,2.2235,2.2237,2.2267,0,0,0,0,0,0,2.1958,2.1966,2.2035,2.2038,2.1987,2.2018,2.2023,2.204,2.2062,2.2064,2.2042,2.204,2.2081,2.2086,2.209,2.2149,2.2102,2.2104,2.2106,2.2234,2.2236,2.2238,0,0,0,0,0,0,2.1961,2.1968,2.2037,2.2018,2.2019,2.2015,2.2019,2.2052,2.2062,2.2037,2.2036,2.2041,2.2073,2.2085,2.2089,2.2141,2.2098,2.2101,2.2103,2.2104,2.2236,2.2238,0,0,0,0,0,0,2.1964,2.197,2.2018,2.2018,2.2018,2.2048,2.2044,2.2088,2.2048,2.2036,2.2044,2.2042,2.2073,2.2077,2.2088,2.2139,2.2141,2.2099,2.21,2.2102,2.2102,0,0,0,0,0,0,0,2.1966,2.1927,2.202,2.2018,2.2018,2.2062,2.2063,2.2064,2.2047,2.2046,2.2044,2.2043,2.2083,2.2086,2.2089,2.2137,0,0,2.2098,2.21,0,0,0,0,0,0,0,0,2.1925,2.1927,2.202,2.2021,2.2021,2.2062,2.2063,2.2063,2.2047,2.2046,2.2045,2.2043,2.2084,2.2086,2.2089,0,0,0,0,0,0,0,0,0,0,0,0,0,0,0,2.202,2.2021,0,2.2062,2.2063,2.2063,2.2047,2.2046,2.2045,2.2044,2.2085,2.2087,2.2089,0,0,0,0,0,0,0,0,0,0,0,0,0,0,0,0,0,0,0,0,0,0,0,0,0,0,0,0,0,0,0,0,0,0,0,0,0,0,0,0,0,0,0,0,0,0,0,0,0,0,0,0,0,0,0,0,0,0,0,0,0,0,0,0,0,0,0,0,0]}],[{"header":{"parameterUnit":"kt","parameterCategory":2,"dx":1,"dy":1,"la1":30.253999710083008,"la2":30.299108505249023,"lo1":-89.0895004272461,"lo2":-89.04439544677734,"nx":28,"ny":28,"refTime":"2022-10-16T21:00:00:Z","depth":0,"parameterNumber":2,"parameterNumberName":"V-component_of_WINDS"},"data":[-0.8087,-0.8087,-0.8089,-0.809,-0.8092,-0.8093,-0.8094,-0.8095,-0.8097,-0.8098,-0.8098,-0.8101,-0.8103,-0.8104,-0.8104,-0.8105,-0.8105,-0.8102,-0.8104,-0.8112,-0.8114,-0.8115,-0.8115,-0.8103,-0.8103,-0.8094,-0.8094,-0.8094,-0.8091,-0.8093,-0.8095,-0.8098,-0.8099,-0.8103,-0.8105,-0.8106,-0.8106,-0.8108,-0.8109,-0.811,-0.8111,-0.8114,-0.8115,-0.8114,-0.8116,-0.8114,-0.8114,-0.8114,-0.8124,-0.8124,-0.8113,-0.8113,-0.8113,-0.8113,-0.8113,-0.8113,-0.8099,-0.8099,-0.8103,-0.8105,-0.8107,-0.8109,-0.8109,-0.8112,-0.8114,-0.8116,-0.8119,-0.8119,-0.8122,-0.8125,-0.8126,-0.8126,-0.8128,-0.8127,-0.8127,-0.8127,-0.8125,-0.8135,-0.8127,-0.8127,-0.8127,-0.8127,-0.8127,0,-0.8106,-0.8108,-0.811,-0.8113,-0.8114,-0.8117,-0.8119,-0.8119,-0.8125,-0.8126,-0.8127,-0.8129,-0.813,-0.8132,-0.8133,-0.8135,-0.8139,-0.814,-0.8139,-0.8137,-0.8135,-0.8135,-0.815,-0.814,-0.814,-0.814,-0.814,-0.814,-0.8114,-0.8114,-0.812,-0.8121,-0.8123,-0.8125,-0.8126,-0.8132,-0.8133,-0.8136,-0.8136,-0.8138,-0.8139,-0.814,-0.8144,-0.8145,-0.8147,-0.8143,-0.8147,-0.8145,-0.8146,-0.8146,-0.8145,-0.8142,-0.8142,-0.8142,-0.8141,0,-0.8118,-0.8123,-0.8124,-0.813,-0.8132,-0.8131,-0.8136,-0.8136,-0.814,-0.8141,-0.8141,-0.8146,-0.8148,-0.8152,-0.8155,-0.8157,-0.8154,-0.8157,-0.8153,-0.8154,-0.815,-0.815,-0.8138,-0.8136,-0.8151,-0.815,-0.815,0,-0.8126,-0.8127,-0.8134,-0.8135,-0.8135,-0.8141,-0.8141,-0.8144,-0.8147,-0.8148,-0.8153,-0.8154,-0.816,-0.8161,-0.8164,-0.8163,-0.8164,-0.8165,-0.8166,-0.8165,-0.8164,-0.8165,-0.8165,-0.8169,-0.8169,-0.8169,-0.8169,0,-0.8132,-0.8137,-0.8138,-0.814,-0.8147,-0.8147,-0.8149,-0.8153,-0.8155,-0.8158,-0.8158,-0.8161,-0.8162,-0.8164,-0.8168,-0.8171,-0.8168,-0.8173,-0.8169,-0.8169,-0.8168,-0.8168,-0.8157,-0.8169,-0.8169,-0.8169,-0.8169,0,-0.814,-0.8143,-0.8144,-0.815,-0.8151,-0.8152,-0.8155,-0.8157,-0.8161,-0.8163,-0.8165,-0.817,-0.817,-0.8174,-0.8175,-0.8177,-0.8178,-0.8179,-0.8179,-0.8179,-0.8184,-0.8176,-0.8165,-0.8164,-0.8179,-0.8179,-0.8179,0,-0.8144,-0.8147,-0.8153,-0.8154,-0.8156,-0.8162,-0.8163,-0.8167,-0.817,-0.8172,-0.8176,-0.8178,-0.8182,-0.8183,-0.8183,-0.8187,-0.8184,-0.8187,-0.8188,-0.8188,-0.8186,-0.8177,-0.8174,-0.8167,-0.8181,-0.8181,-0.818,0,-0.8148,-0.8158,-0.8158,-0.816,-0.8167,-0.8169,-0.817,-0.8174,-0.8174,-0.8178,-0.8179,-0.8183,-0.8186,-0.8188,-0.8192,-0.8191,-0.8186,-0.8195,-0.8195,-0.8192,-0.8182,-0.8179,-0.8178,-0.8188,-0.8188,-0.8188,-0.8181,0,-0.8158,-0.8161,-0.8161,-0.8167,-0.817,-0.8171,-0.8177,-0.8179,-0.8183,-0.8187,-0.8188,-0.8193,-0.8197,-0.8197,-0.8201,-0.8198,-0.82,-0.8203,-0.8207,-0.8201,-0.8199,-0.8198,-0.821,-0.821,-0.821,-0.821,0,0,-0.816,-0.8165,-0.8172,-0.8174,-0.8176,-0.8183,-0.8184,-0.8187,-0.8194,-0.8195,-0.8198,-0.8203,-0.8207,-0.8208,-0.8207,-0.8209,-0.8208,-0.8211,-0.8204,-0.8204,-0.8203,-0.8201,-0.82,-0.8211,-0.8211,-0.8211,-0.8211,0,-0.8165,-0.817,-0.8172,-0.8175,-0.8181,-0.8186,-0.8186,-0.8194,-0.8196,-0.8198,-0.8204,-0.8206,-0.8211,-0.8214,-0.8216,-0.8211,-0.8215,-0.8211,-0.8206,-0.8206,-0.8205,-0.8204,-0.8201,-0.82,-0.8211,-0.8211,-0.8211,0,-0.817,-0.8176,-0.8178,-0.8185,-0.8189,-0.8191,-0.8197,-0.82,-0.8202,-0.8209,-0.8211,-0.8215,-0.822,-0.8221,-0.8221,-0.8223,-0.822,-0.8222,-0.8222,-0.8222,-0.8221,-0.822,-0.8219,-0.8232,-0.8232,-0.8232,0,0,-0.8174,-0.8177,-0.8185,-0.8186,-0.8189,-0.8196,-0.8198,-0.8202,-0.8207,-0.8209,-0.8214,-0.8218,-0.8221,-0.8222,-0.8225,-0.8226,-0.8227,-0.8225,-0.8224,-0.8223,-0.8223,-0.8222,-0.8221,-0.8232,-0.8232,-0.8232,0,0,-0.8175,-0.8185,-0.8189,-0.8191,-0.8196,-0.8204,-0.8204,-0.8208,-0.8212,-0.8212,-0.8219,-0.8221,-0.8222,-0.8225,-0.8227,-0.8227,-0.8231,-0.8231,-0.8225,-0.8224,-0.8223,-0.8222,-0.8233,0,0,0,0,0,-0.8184,-0.8184,-0.8187,-0.8188,-0.8198,-0.8202,-0.8203,-0.8209,-0.8212,-0.8212,-0.8217,-0.8221,-0.8227,-0.8229,-0.823,-0.8228,-0.8234,-0.8234,-0.8233,-0.8225,-0.8224,-0.8223,0,0,0,0,0,0,-0.8185,-0.8187,-0.8187,-0.8195,-0.8197,-0.8202,-0.8208,-0.821,-0.8212,-0.8213,-0.822,-0.8221,-0.8226,-0.8229,-0.8229,-0.8228,-0.8233,-0.8234,-0.8234,-0.8233,-0.8225,-0.8224,-0.8223,0,0,0,0,0,-0.8185,-0.8187,-0.82,-0.8195,-0.8197,-0.8205,-0.8208,-0.8209,-0.8212,-0.8219,-0.8221,-0.8216,-0.8226,-0.8227,-0.8229,-0.8227,-0.8233,-0.8233,-0.8234,-0.8233,-0.8233,-0.8224,0,0,0,0,0,0,-0.8186,-0.8188,-0.8201,-0.8202,-0.8196,-0.8205,-0.8206,-0.8209,-0.8218,-0.8219,-0.8215,-0.8216,-0.8226,-0.8227,-0.8228,-0.8227,-0.8232,-0.8233,-0.8233,-0.8233,-0.8233,-0.8233,0,0,0,0,0,0,-0.8187,-0.8189,-0.8201,-0.8202,-0.8203,-0.8205,-0.8206,-0.8209,-0.8218,-0.8213,-0.8214,-0.8216,-0.8225,-0.8227,-0.8227,-0.8231,-0.8232,-0.8232,-0.8232,-0.8232,-0.8233,-0.8233,0,0,0,0,0,0,-0.8188,-0.8189,-0.8202,-0.8202,-0.8203,-0.8212,-0.8207,-0.8216,-0.8219,-0.8213,-0.8219,-0.8219,-0.8224,-0.8225,-0.8227,-0.8231,-0.8231,-0.8232,-0.8232,-0.8232,-0.8232,0,0,0,0,0,0,0,-0.8188,-0.8179,-0.8196,-0.8203,-0.8204,-0.8209,-0.8209,-0.8209,-0.8219,-0.8219,-0.8219,-0.8219,-0.823,-0.8231,-0.8231,-0.823,0,0,-0.8232,-0.8232,0,0,0,0,0,0,0,0,-0.8179,-0.8179,-0.8196,-0.8196,-0.8197,-0.8209,-0.8209,-0.8209,-0.8219,-0.8219,-0.8219,-0.8219,-0.823,-0.8231,-0.8231,0,0,0,0,0,0,0,0,0,0,0,0,0,0,0,-0.8196,-0.8196,0,-0.8209,-0.8209,-0.8209,-0.8219,-0.8219,-0.8219,-0.8219,-0.823,-0.8231,-0.8231,0,0,0,0,0,0,0,0,0,0,0,0,0,0,0,0,0,0,0,0,0,0,0,0,0,0,0,0,0,0,0,0,0,0,0,0,0,0,0,0,0,0,0,0,0,0,0,0,0,0,0,0,0,0,0,0,0,0,0,0,0,0,0,0,0,0,0,0,0]}]]]